Location: �perlecques
(50.8057°N, 2.1521°E)
Time: 00:40:52
(UTC+00:00)

STARLINK-1224 - Pass Details

Date: 09 April 2020
Orbit: 549 x 551 km, 53.0° (Epoch: 03 June)

Event Time Altitude Azimuth Distance (km) Brightness Sun altitude
Rises 19:00:22 0° 284° (WNW) 2,729 10.1 -4.3°
Reaches altitude 10° 19:02:37 10° 287° (WNW) 1,834 8.3 -4.6°
Maximum altitude 19:06:46 73° 11° (NNE) 582 3.8 -5.2°
Drops below altitude 10° 19:10:56 10° 98° (E) 1,830 5.6 -5.8°
Enters shadow 19:11:33 - 98° (E) 2,074 5.9 -5.9°
